Time,TemperatureF,DewpointF,PressureIn,WindDirection,WindDirectionDegrees,WindSpeedMPH,WindSpeedGustMPH,Humidity,HourlyPrecipIn,Conditions,Clouds,dailyrainin,SoftwareType,DateUTC
2013-09-05 00:02:00,64.2,64.0,30.11,ESE,121,0.0,-999.0,100,-99.99,,,0.00,weatherlink.com 1.10,2013-09-04 21:02:00,
2013-09-05 00:17:00,63.7,64.0,30.11,ESE,121,0.0,-999.0,100,-99.99,,,0.00,weatherlink.com 1.10,2013-09-04 21:17:00,
2013-09-05 00:32:00,63.4,63.0,30.11,ESE,121,0.0,-999.0,100,-99.99,,,0.00,weatherlink.com 1.10,2013-09-04 21:32:00,
2013-09-05 00:47:00,63.4,63.0,30.11,ESE,121,0.0,-999.0,100,-99.99,,,0.00,weatherlink.com 1.10,2013-09-04 21:47:00,
2013-09-05 01:02:00,62.6,63.0,30.11,ESE,121,0.0,-999.0,100,-99.99,,,0.00,weatherlink.com 1.10,2013-09-04 22:02:00,
2013-09-05 01:17:00,62.1,62.0,30.11,ESE,121,0.0,-999.0,100,-99.99,,,0.00,weatherlink.com 1.10,2013-09-04 22:17:00,
2013-09-05 01:32:00,62.3,62.0,30.10,ESE,121,0.0,-999.0,100,-99.99,,,0.00,weatherlink.com 1.10,2013-09-04 22:32:00,
2013-09-05 01:47:00,62.6,63.0,30.10,ESE,121,0.0,-999.0,100,-99.99,,,0.00,weatherlink.com 1.10,2013-09-04 22:47:00,
2013-09-05 02:02:00,62.3,62.0,30.10,ESE,121,0.0,-999.0,100,-99.99,,,0.00,weatherlink.com 1.10,2013-09-04 23:02:00,
2013-09-05 02:17:00,62.1,62.0,30.09,ESE,113,0.0,-999.0,100,-99.99,,,0.00,weatherlink.com 1.10,2013-09-04 23:17:00,
2013-09-05 02:32:00,61.8,62.0,30.09,ESE,110,0.0,-999.0,100,-99.99,,,0.00,weatherlink.com 1.10,2013-09-04 23:32:00,
2013-09-05 02:47:00,61.3,61.0,30.09,ESE,117,0.0,-999.0,100,-99.99,,,0.00,weatherlink.com 1.10,2013-09-04 23:47:00,
2013-09-05 03:02:00,61.0,61.0,30.10,ESE,109,0.0,-999.0,100,-99.99,,,0.00,weatherlink.com 1.10,2013-09-05 00:02:00,
2013-09-05 03:17:00,60.5,61.0,30.10,ESE,109,0.0,-999.0,100,-99.99,,,0.00,weatherlink.com 1.10,2013-09-05 00:17:00,
2013-09-05 03:32:00,60.1,60.0,30.10,ESE,109,0.0,-999.0,100,-99.99,,,0.00,weatherlink.com 1.10,2013-09-05 00:32:00,
2013-09-05 03:47:00,60.7,61.0,30.10,ESE,109,0.0,-999.0,100,-99.99,,,0.00,weatherlink.com 1.10,2013-09-05 00:47:00,
2013-09-05 04:02:00,61.6,62.0,30.10,ESE,107,0.0,-999.0,100,-99.99,,,0.00,weatherlink.com 1.10,2013-09-05 01:02:00,
2013-09-05 04:17:00,61.3,61.0,30.11,NE,34,0.0,-999.0,100,-99.99,,,0.00,weatherlink.com 1.10,2013-09-05 01:17:00,
2013-09-05 04:33:00,60.7,61.0,30.13,NE,35,8.0,-999.0,100,-99.99,,,0.00,weatherlink.com 1.10,2013-09-05 01:33:00,
2013-09-05 04:48:00,59.3,59.0,30.13,North,352,0.0,-999.0,100,-99.99,,,0.06,weatherlink.com 1.10,2013-09-05 01:48:00,
2013-09-05 05:03:00,59.0,59.0,30.11,East,82,0.0,-999.0,100,-99.99,,,0.06,weatherlink.com 1.10,2013-09-05 02:03:00,
2013-09-05 05:18:00,59.0,59.0,30.10,ESE,117,0.0,-999.0,100,-99.99,,,0.06,weatherlink.com 1.10,2013-09-05 02:18:00,
2013-09-05 05:33:00,59.0,59.0,30.10,NW,311,0.0,-999.0,100,-99.99,,,0.06,weatherlink.com 1.10,2013-09-05 02:33:00,
2013-09-05 05:48:00,58.6,59.0,30.10,NW,311,0.0,-999.0,100,-99.99,,,0.06,weatherlink.com 1.10,2013-09-05 02:48:00,
2013-09-05 06:03:00,58.6,59.0,30.10,NW,311,0.0,-999.0,100,-99.99,,,0.06,weatherlink.com 1.10,2013-09-05 03:03:00,
2013-09-05 06:18:00,58.1,58.0,30.10,NW,311,0.0,-999.0,100,-99.99,,,0.06,weatherlink.com 1.10,2013-09-05 03:18:00,
2013-09-05 06:33:00,58.3,58.0,30.10,NW,311,0.0,-999.0,100,-99.99,,,0.06,weatherlink.com 1.10,2013-09-05 03:33:00,
2013-09-05 06:48:00,58.1,58.0,30.10,NW,311,0.0,-999.0,100,-99.99,,,0.06,weatherlink.com 1.10,2013-09-05 03:48:00,
2013-09-05 07:03:00,58.6,59.0,30.10,NW,311,0.0,-999.0,100,-99.99,,,0.06,weatherlink.com 1.10,2013-09-05 04:03:00,
2013-09-05 07:18:00,60.1,60.0,30.10,NW,311,0.0,-999.0,100,-99.99,,,0.06,weatherlink.com 1.10,2013-09-05 04:18:00,
2013-09-05 07:33:00,61.3,61.0,30.10,NW,311,0.0,-999.0,100,-99.99,,,0.06,weatherlink.com 1.10,2013-09-05 04:33:00,
2013-09-05 07:48:00,63.1,63.0,30.10,NW,311,0.0,-999.0,100,-99.99,,,0.06,weatherlink.com 1.10,2013-09-05 04:48:00,
2013-09-05 08:04:00,65.2,65.0,30.10,NW,311,0.0,-999.0,100,-99.99,,,0.06,weatherlink.com 1.10,2013-09-05 05:04:00,
2013-09-05 08:19:00,66.3,66.0,30.09,NW,311,0.0,-999.0,100,-99.99,,,0.06,weatherlink.com 1.10,2013-09-05 05:19:00,
2013-09-05 08:34:00,68.4,63.0,30.10,NW,311,0.0,-999.0,84,-99.99,,,0.06,weatherlink.com 1.10,2013-09-05 05:34:00,
2013-09-05 08:49:00,69.9,64.0,30.09,NW,311,0.0,-999.0,81,-99.99,,,0.06,weatherlink.com 1.10,2013-09-05 05:49:00,
2013-09-05 09:04:00,71.3,71.0,30.10,WNW,302,0.0,-999.0,100,-99.99,,,0.06,weatherlink.com 1.10,2013-09-05 06:04:00,
2013-09-05 09:19:00,70.8,71.0,30.10,NW,322,0.0,-999.0,100,-99.99,,,0.06,weatherlink.com 1.10,2013-09-05 06:19:00,
2013-09-05 09:34:00,69.8,70.0,30.10,West,264,0.0,-999.0,100,-99.99,,,0.06,weatherlink.com 1.10,2013-09-05 06:34:00,
2013-09-05 09:49:00,70.3,70.0,30.10,SW,227,1.0,-999.0,100,-99.99,,,0.06,weatherlink.com 1.10,2013-09-05 06:49:00,
2013-09-05 10:04:00,71.8,72.0,30.10,North,0,3.0,-999.0,100,-99.99,,,0.06,weatherlink.com 1.10,2013-09-05 07:04:00,
2013-09-05 10:19:00,70.9,71.0,30.10,North,356,0.0,-999.0,100,-99.99,,,0.06,weatherlink.com 1.10,2013-09-05 07:19:00,
2013-09-05 10:34:00,70.8,71.0,30.10,NNW,339,5.0,-999.0,100,-99.99,,,0.06,weatherlink.com 1.10,2013-09-05 07:34:00,
2013-09-05 10:49:00,70.3,70.0,30.10,North,1,5.0,-999.0,100,-99.99,,,0.06,weatherlink.com 1.10,2013-09-05 07:49:00,
2013-09-05 11:04:00,70.4,70.0,30.10,NE,49,5.0,-999.0,100,-99.99,,,0.06,weatherlink.com 1.10,2013-09-05 08:04:00,
2013-09-05 11:19:00,70.9,71.0,30.10,NW,309,8.0,-999.0,100,-99.99,,,0.06,weatherlink.com 1.10,2013-09-05 08:19:00,
2013-09-05 11:35:00,70.3,70.0,30.10,NNE,14,5.0,-999.0,100,-99.99,,,0.06,weatherlink.com 1.10,2013-09-05 08:35:00,
2013-09-05 11:50:00,70.4,70.0,30.10,NNE,24,10.0,-999.0,100,-99.99,,,0.06,weatherlink.com 1.10,2013-09-05 08:50:00,
2013-09-05 12:05:00,70.3,70.0,30.09,NE,41,6.0,-999.0,100,-99.99,,,0.06,weatherlink.com 1.10,2013-09-05 09:05:00,
2013-09-05 12:20:00,69.9,70.0,30.09,NNE,16,7.0,-999.0,100,-99.99,,,0.06,weatherlink.com 1.10,2013-09-05 09:20:00,
2013-09-05 12:35:00,70.6,71.0,30.09,ENE,61,8.0,-999.0,100,-99.99,,,0.06,weatherlink.com 1.10,2013-09-05 09:35:00,
2013-09-05 12:50:00,71.5,72.0,30.09,NW,311,7.0,-999.0,100,-99.99,,,0.06,weatherlink.com 1.10,2013-09-05 09:50:00,
2013-09-05 13:05:00,70.9,71.0,30.09,NNE,21,2.0,-999.0,100,-99.99,,,0.06,weatherlink.com 1.10,2013-09-05 10:05:00,
2013-09-05 13:20:00,72.0,72.0,30.08,ENE,72,5.0,-999.0,100,-99.99,,,0.06,weatherlink.com 1.10,2013-09-05 10:20:00,
2013-09-05 13:35:00,71.5,72.0,30.08,NNE,24,5.0,-999.0,100,-99.99,,,0.06,weatherlink.com 1.10,2013-09-05 10:35:00,
2013-09-05 13:50:00,71.6,72.0,30.08,NNE,21,13.0,-999.0,100,-99.99,,,0.06,weatherlink.com 1.10,2013-09-05 10:50:00,
2013-09-05 14:05:00,70.8,71.0,30.08,NE,34,5.0,-999.0,100,-99.99,,,0.06,weatherlink.com 1.10,2013-09-05 11:05:00,
2013-09-05 14:20:00,71.1,71.0,30.07,East,80,8.0,-999.0,100,-99.99,,,0.06,weatherlink.com 1.10,2013-09-05 11:20:00,
2013-09-05 14:35:00,71.1,71.0,30.07,North,4,11.0,-999.0,100,-99.99,,,0.06,weatherlink.com 1.10,2013-09-05 11:35:00,
2013-09-05 14:50:00,71.1,71.0,30.06,North,8,3.0,-999.0,100,-99.99,,,0.06,weatherlink.com 1.10,2013-09-05 11:50:00,
2013-09-05 15:06:00,70.9,71.0,30.06,NE,40,5.0,-999.0,100,-99.99,,,0.06,weatherlink.com 1.10,2013-09-05 12:06:00,
2013-09-05 15:21:00,70.9,71.0,30.05,NE,38,5.0,-999.0,100,-99.99,,,0.06,weatherlink.com 1.10,2013-09-05 12:21:00,
2013-09-05 15:36:00,70.8,71.0,30.05,NE,41,7.0,-999.0,100,-99.99,,,0.06,weatherlink.com 1.10,2013-09-05 12:36:00,
2013-09-05 15:52:00,70.9,71.0,30.05,NE,45,3.0,-999.0,100,-99.99,,,0.06,weatherlink.com 1.10,2013-09-05 12:52:00,
2013-09-05 16:06:00,70.9,71.0,30.05,North,3,5.0,-999.0,100,-99.99,,,0.06,weatherlink.com 1.10,2013-09-05 13:06:00,
2013-09-05 16:21:00,70.4,70.0,30.05,NNE,24,12.0,-999.0,100,-99.99,,,0.06,weatherlink.com 1.10,2013-09-05 13:21:00,
2013-09-05 16:36:00,70.4,70.0,30.04,North,10,8.0,-999.0,100,-99.99,,,0.06,weatherlink.com 1.10,2013-09-05 13:36:00,
2013-09-05 16:51:00,70.6,71.0,30.04,North,1,6.0,-999.0,100,-99.99,,,0.06,weatherlink.com 1.10,2013-09-05 13:51:00,
2013-09-05 17:06:00,70.4,70.0,30.04,NNE,20,7.0,-999.0,100,-99.99,,,0.06,weatherlink.com 1.10,2013-09-05 14:06:00,
2013-09-05 17:21:00,70.3,70.0,30.04,NE,34,3.0,-999.0,100,-99.99,,,0.06,weatherlink.com 1.10,2013-09-05 14:21:00,
2013-09-05 17:36:00,70.3,70.0,30.03,ENE,73,8.0,-999.0,100,-99.99,,,0.06,weatherlink.com 1.10,2013-09-05 14:36:00,
2013-09-05 17:51:00,70.3,70.0,30.03,NE,45,3.0,-999.0,100,-99.99,,,0.06,weatherlink.com 1.10,2013-09-05 14:51:00,
2013-09-05 18:06:00,70.3,70.0,30.02,NE,48,7.0,-999.0,100,-99.99,,,0.06,weatherlink.com 1.10,2013-09-05 15:06:00,
2013-09-05 18:21:00,70.3,70.0,30.02,East,80,6.0,-999.0,100,-99.99,,,0.06,weatherlink.com 1.10,2013-09-05 15:21:00,
2013-09-05 18:37:00,69.9,70.0,30.02,NE,38,0.0,-999.0,100,-99.99,,,0.06,weatherlink.com 1.10,2013-09-05 15:37:00,
2013-09-05 18:52:00,69.6,70.0,30.02,East,86,4.0,-999.0,100,-99.99,,,0.06,weatherlink.com 1.10,2013-09-05 15:52:00,
2013-09-05 19:07:00,69.3,69.0,30.02,NE,55,5.0,-999.0,100,-99.99,,,0.06,weatherlink.com 1.10,2013-09-05 16:07:00,
2013-09-05 19:22:00,68.4,68.0,30.01,ENE,66,0.0,-999.0,100,-99.99,,,0.06,weatherlink.com 1.10,2013-09-05 16:22:00,
2013-09-05 19:37:00,67.9,68.0,30.01,NE,56,5.0,-999.0,100,-99.99,,,0.06,weatherlink.com 1.10,2013-09-05 16:37:00,
2013-09-05 19:52:00,67.4,67.0,30.02,NE,45,5.0,-999.0,100,-99.99,,,0.06,weatherlink.com 1.10,2013-09-05 16:52:00,
2013-09-05 20:07:00,67.1,67.0,30.01,ENE,69,5.0,-999.0,100,-99.99,,,0.06,weatherlink.com 1.10,2013-09-05 17:07:00,
2013-09-05 20:22:00,66.4,66.0,30.01,NE,55,0.0,-999.0,100,-99.99,,,0.06,weatherlink.com 1.10,2013-09-05 17:22:00,
2013-09-05 20:37:00,66.1,66.0,30.02,NE,44,1.0,-999.0,100,-99.99,,,0.06,weatherlink.com 1.10,2013-09-05 17:37:00,
2013-09-05 20:52:00,65.6,66.0,30.02,ESE,103,5.0,-999.0,100,-99.99,,,0.06,weatherlink.com 1.10,2013-09-05 17:52:00,
2013-09-05 21:07:00,65.2,65.0,30.02,ESE,119,5.0,-999.0,100,-99.99,,,0.06,weatherlink.com 1.10,2013-09-05 18:07:00,
2013-09-05 21:22:00,65.0,65.0,30.02,ENE,72,2.0,-999.0,100,-99.99,,,0.06,weatherlink.com 1.10,2013-09-05 18:22:00,
2013-09-05 21:37:00,64.8,65.0,30.02,ENE,75,5.0,-999.0,100,-99.99,,,0.06,weatherlink.com 1.10,2013-09-05 18:37:00,
2013-09-05 21:52:00,64.7,65.0,30.02,ESE,107,0.0,-999.0,100,-99.99,,,0.06,weatherlink.com 1.10,2013-09-05 18:52:00,
2013-09-05 22:07:00,64.2,64.0,30.02,SE,124,4.0,-999.0,100,-99.99,,,0.06,weatherlink.com 1.10,2013-09-05 19:07:00,
2013-09-05 22:22:00,64.0,64.0,30.02,ESE,120,0.0,-999.0,100,-99.99,,,0.06,weatherlink.com 1.10,2013-09-05 19:22:00,
2013-09-05 22:37:00,63.7,64.0,30.02,ESE,120,5.0,-999.0,100,-99.99,,,0.06,weatherlink.com 1.10,2013-09-05 19:37:00,
2013-09-05 22:53:00,63.7,64.0,30.02,SE,130,3.0,-999.0,100,-99.99,,,0.06,weatherlink.com 1.10,2013-09-05 19:53:00,
2013-09-05 23:08:00,63.7,64.0,30.02,SSE,152,3.0,-999.0,100,-99.99,,,0.06,weatherlink.com 1.10,2013-09-05 20:08:00,
2013-09-05 23:23:00,63.4,63.0,30.01,SE,126,2.0,-999.0,100,-99.99,,,0.06,weatherlink.com 1.10,2013-09-05 20:23:00,
2013-09-05 23:38:00,63.1,63.0,30.01,SE,141,10.0,-999.0,100,-99.99,,,0.06,weatherlink.com 1.10,2013-09-05 20:38:00,
2013-09-05 23:53:00,63.2,63.0,30.01,ESE,102,2.0,-999.0,100,-99.99,,,0.00,weatherlink.com 1.10,2013-09-05 20:53:00,